Home   Weather   Annapolis   Past weeks

Flag for USA Past Weather in Annapolis, Maryland, USA — Yesterday and Last 2 Weeks

Now
43 °F

Overcast.


Feels Like: 36 °F
Forecast: 41 / 43 °F
Wind: 13 mph from Northeast

Location: Annapolis - United States Naval Academy

Current Time: Jan 23, 2017 at 6:24:58 pm

Latest Report: Jan 23, 2017 at 5:54 pm


Visibility: 10 mi

Pressure: 29.49 "Hg

Humidity: 79%

Dew Point: 37 °F

Location of AnnapolisLocation

Past Weather in Annapolis — Graph

°F

Annapolis Temperature Yesterday

Maximum temperature yesterday: 50 °F (at 7:54 pm)
Minimum temperature yesterday: 45 °F (at 1:31 am)
Average temperature yesterday: 47 °F

High & Low Weather Summary for the Past Weeks

 TemperatureHumidityPressure
High73 °F (Jan 12, 2:54 pm)97% (Jan 17, 6:32 pm)30.81 "Hg (Jan 17, 6:32 pm)
Low16 °F (Jan 9, 5:54 am)39% (Jan 13, 2:54 pm)29.42 "Hg (Jan 23, 1:33 pm)
Average43 °F76%30.14 "Hg
* Reported Jan 8 4:54 pm — Jan 23 4:54 pm, Annapolis, Weather by CustomWeather, © 2017

Note: Actual official high and low records may vary slightly from our data, if they occured in-between our weather recording intervals... More about our weather records

Advertising

Annapolis Weather History for the Previous 24 Hours

Scroll right to see more
 ConditionsComfort  
Time TempWeatherWind HumidityBarometerVisibility
4:54 pm
Mon, Jan 23
43 °FOvercast.13 mph82%29.47 "Hg7 mi
3:54 pm44 °FOvercast.12 mph79%29.47 "Hg10 mi
2:54 pm43 °FMostly cloudy.13 mph86%29.46 "Hg10 mi
2:32 pm43 °FLight rain. Fog.10 mph86%29.46 "Hg3 mi
2:06 pm43 °FRain. Fog.7 mph86%29.46 "Hg1 mi
1:33 pm44 °FHeavy rain. Fog.23 mph85%29.42 "Hg2 mi
1:08 pm44 °FLight rain. Fog.18 mph85%29.43 "Hg2 mi
12:58 pm44 °FLight rain. Fog.15 mph85%29.45 "Hg2 mi
12:31 pm44 °FLight rain. Fog.15 mph85%29.44 "Hg2 mi
11:54 am44 °FLight rain. Fog.15 mph85%29.48 "Hg3 mi
10:54 am45 °FLight rain. Overcast.18 mph82%29.50 "Hg7 mi
9:54 am46 °FLight rain. Overcast.17 mph83%29.52 "Hg3 mi
8:54 am46 °FFog.17 mph86%29.54 "Hg5 mi
7:54 am47 °FFog.14 mph86%29.54 "Hg4 mi
6:54 am46 °FOvercast.16 mphN/A29.54 "Hg5 mi
5:54 am46 °FFog.14 mphN/A29.56 "Hg3 mi
4:54 am46 °FOvercast.14 mphN/A29.56 "Hg8 mi
3:54 am46 °FFog.13 mphN/A29.58 "Hg3 mi
2:54 am48 °FOvercast.12 mphN/A29.61 "Hg5 mi
2:29 am48 °FOvercast.15 mphN/A29.60 "Hg7 mi
1:54 am49 °FFog.16 mph97%29.61 "Hg4 mi
1:24 am49 °FFog.12 mph93%29.61 "Hg4 mi
1:17 am49 °FFog.13 mph93%29.61 "Hg3 mi
1:07 am49 °FFog.12 mph90%29.62 "Hg2 mi
12:54 am50 °FFog.10 mph89%29.63 "Hg3 mi
11:54 pm
Sun, Jan 22
50 °FLight rain. Low clouds.9 mph89%29.64 "Hg8 mi
10:54 pm50 °FFog.9 mph93%29.65 "Hg5 mi
9:54 pm50 °FFog.6 mph89%29.64 "Hg3 mi
8:54 pm50 °FFog.7 mph93%29.63 "Hg2 mi
7:54 pm50 °FFog.9 mph89%29.63 "Hg5 mi
6:54 pm49 °FFog.7 mph93%29.64 "Hg2 mi
Weather by CustomWeather, © 2017

See weather overviewHow to use our weather pages